Location: USNO
(38.9242°N, 77.0663°W)
Time: 10:09:30
(UTC-04:00)

Envisat - Pass Details

Date: 13 October 2017
Orbit: 764 x 766 km, 98.2° (Epoch: 20 October)

Event Time Altitude Azimuth Distance (km) Brightness Sun altitude
Exits shadow 20:56:59 45° 354° (N) 1,041 3.7 -28.8°
Drops below altitude 10° 21:00:28 10° 349° (N) 2,309 5.7 -29.5°
Sets 21:02:46 0° 349° (NNW) 3,239 6.6 -29.9°
